AMOS-3

Last updated on Thu Jul 03 2025 00:02:45 GMT+0000 (Coordinated Universal Time)

1 32794U 08022A 25183.35392052 -.00000028 00000+0 00000+0 0 9994 2 32794 0.0441 107.8398 0000998 25.0329 271.0656 1.00273633 78826
UTC large
Height (km)
Speed (km/s)
/
Latitude / Longitude
Inclination (degrees)
Orbital Period (minutes)
Azimuth
Elevation
Range (km)
Doppler Factor

Next 0 passes for location: London (51.5072 / 0.1276)

Sorry there are no passes over London.